Airfield :
LOGIN :

Register | Disclaimer

   EN    FR    IT 

 










Legend :    VFR   Marginal VFR   IFR   Intensive IFR   Very Intensive IFR
Visi :
Ceiling :
>= 8 km
>= 3000ft
5 to 8 km
1000 to 3000 ft
1500m to 5 km
500 to 1000 ft
800 to 1500m
200 to 500 ft
< 800m
< 200 ft
Symbols :   Thunderstorms  Fog  Heavy snow  Heavy precipitations  Wind > 20 kt
SIGMETs :     Misc.  Thunderstorms  Icing  Turbulence  Mountain Waves  Volcanic Ashes






- Airport Elevation : 465 ft
- IATA code : LEJ


EDDP - Leipzig Halle

CURRENT METAR :
  • 260350Z 33010KT CAVOK 10/08 Q1033 NOSIG

EXPIRED METARs :
  • 260320Z 33008KT CAVOK 10/08 Q1033 NOSIG
  • 260250Z 32006KT CAVOK 10/08 Q1033 NOSIG
  • 260220Z 33009KT CAVOK 10/08 Q1033 NOSIG
  • 260150Z 32010KT CAVOK 10/08 Q1033 NOSIG

TAF TAF EDDP
Valid from the 26 at 00:00 until the 27 at 00:00 UTC


252300Z 2600/2624 34007KT 9999 SCT025
PROB30
TEMPO 2604/2606 3000 BR BKN008



MET'MAP, your aeronautical weather chart ! - Copyright ORBIFLY December 2007 - Disclaimer

ORBIFLY MET'MAP TEAM :

Programming & Development : Alexandra Zaïnal
Concept & original design : Baudouin d'Aumeries
Assistance for programming : Marc-Olivier Méhu
Technical & hardware support : Manuel Goepfert

Contact : metmap@orbifly.com




SOURCES & CREDITS :

   NOAA